Location: Azul
(36.7830°S, 59.8500°W)
Time: 01:25:26
(UTC-03:00)

HuskySat-1 - Pass Details

Date: 24 October 2021
Orbit: 443 x 456 km, 51.6° (Epoch: 04 December)

Event Time Altitude Azimuth Distance (km) Brightness Sun altitude
Exits shadow 04:25:48 - 222° (SW) 2,078 ? -18.7°
Reaches altitude 10° 04:26:59 10° 218° (SW) 1,615 ? -18.5°
Maximum altitude 04:30:29 44° 144° (SE) 650 ? -17.9°
Drops below altitude 10° 04:33:55 10° 70° (ENE) 1,590 ? -17.3°
Sets 04:36:06 0° 63° (ENE) 2,453 ? -16.9°
